[[{"header":{"parameterUnit":"m.s-1","parameterCategory":1,"la1":30.2991,"la2":30.254,"lo1":-89.0895,"lo2":-89.0444,"dy":0.0017,"dx":0.0017,"nx":28,"ny":28,"refTime":"2025-07-24T03:00:00:Z","depth":0,"parameterNumber":2,"parameterNumberName":"U-component_of_WINDS"},"data":[0,0,0,0,0,0,0,0,0,0,0,0,0,0,0,0,0,0,0,0,0,0,0,0,0,0,0,0,0,0,0,0,0,0,0,0,0,0,0,0,0,0,0,0,0,0,0,0,0,0,0,0,0,0,0,0,0,0,-0.831,-0.8307,0,-0.8068,-0.8066,-0.8063,-0.7914,-0.7913,-0.7912,-0.7912,-0.7656,-0.765,-0.7644,0,0,0,0,0,0,0,0,0,0,0,0,0,-0.8635,-0.863,-0.831,-0.8307,-0.8304,-0.8069,-0.8066,-0.8062,-0.7914,-0.7913,-0.7912,-0.7911,-0.7658,-0.7651,-0.7643,0,0,0,0,0,0,0,0,0,0,0,0,0,-0.8454,-0.8628,-0.8311,-0.8202,-0.819,-0.807,-0.8065,-0.8061,-0.7914,-0.7913,-0.7912,-0.7911,-0.766,-0.7651,-0.7642,-0.7609,0,0,-0.7615,-0.7611,0,0,0,0,0,0,0,0,-0.8464,-0.8442,-0.8221,-0.8209,-0.8195,-0.802,-0.8086,-0.7909,-0.7914,-0.8019,-0.7912,-0.791,-0.7777,-0.7759,-0.7716,-0.7597,-0.7586,-0.7614,-0.7608,-0.7604,-0.7602,0,0,0,0,0,0,0,-0.8477,-0.8451,-0.8214,-0.8218,-0.8202,-0.8163,-0.8136,-0.8052,-0.7907,-0.8009,-0.7998,-0.7972,-0.777,-0.7725,-0.7709,-0.7582,-0.7614,-0.7606,-0.76,-0.7597,-0.742,-0.7421,0,0,0,0,0,0,-0.8508,-0.8463,-0.8222,-0.8207,-0.833,-0.8158,-0.8127,-0.8077,-0.7908,-0.7881,-0.7973,-0.7966,-0.7741,-0.7719,-0.7699,-0.7646,-0.7604,-0.7596,-0.759,-0.7419,-0.742,-0.7421,0,0,0,0,0,0,-0.8516,-0.8488,-0.8232,-0.8332,-0.8296,-0.8153,-0.8098,-0.8073,-0.8028,-0.788,-0.7853,-0.7954,-0.7739,-0.7712,-0.7632,-0.7635,-0.7592,-0.7583,-0.7418,-0.742,-0.7421,-0.7542,0,0,0,0,0,0,-0.8526,-0.8492,-0.8479,-0.8333,-0.8292,-0.8172,-0.8099,-0.8069,-0.8013,-0.8002,-0.7855,-0.783,-0.7736,-0.7647,-0.7623,-0.7622,-0.7576,-0.7417,-0.7419,-0.742,-0.7537,-0.7548,-0.7556,0,0,0,0,0,-0.8538,-0.8522,-0.848,-0.8451,-0.8274,-0.8173,-0.8149,-0.8044,-0.8014,-0.7999,-0.7904,-0.7834,-0.764,-0.764,-0.7612,-0.7608,-0.7417,-0.7419,-0.742,-0.7533,-0.7546,-0.7556,0,0,0,0,0,0,-0.8671,-0.8501,-0.8452,-0.8389,-0.8297,-0.8148,-0.8126,-0.8061,-0.7973,-0.7965,-0.7837,-0.7805,-0.7737,-0.7664,-0.7668,-0.7565,-0.752,-0.7516,-0.7615,-0.7626,-0.7635,-0.7653,-0.7569,0,0,0,0,0,-0.8693,-0.8628,-0.8482,-0.844,-0.8397,-0.827,-0.8222,-0.815,-0.8047,-0.8007,-0.7906,-0.7807,-0.7723,-0.7671,-0.7585,-0.7527,-0.749,-0.751,-0.7519,-0.7528,-0.7525,-0.7486,-0.7492,-0.7427,-0.7427,-0.7427,0,0,-0.8738,-0.8637,-0.8603,-0.8464,-0.8384,-0.8317,-0.8238,-0.817,-0.8117,-0.7995,-0.7914,-0.7837,-0.7718,-0.7649,-0.7612,-0.7586,-0.7536,-0.753,-0.7538,-0.753,-0.7488,-0.7494,-0.75,-0.7428,-0.7428,-0.7428,0,0,-0.8784,-0.8703,-0.8658,-0.858,-0.8461,-0.8376,-0.8366,-0.8226,-0.8171,-0.8088,-0.7995,-0.7929,-0.7788,-0.7706,-0.7647,-0.7662,-0.7592,-0.7637,-0.7686,-0.7649,-0.7654,-0.7658,-0.766,-0.7663,-0.7636,-0.7636,-0.7636,0,-0.8855,-0.8751,-0.8643,-0.858,-0.8521,-0.841,-0.8362,-0.829,-0.8149,-0.8108,-0.8081,-0.7901,-0.7813,-0.7722,-0.7726,-0.7682,-0.7663,-0.7653,-0.7662,-0.7665,-0.7667,-0.7668,-0.767,-0.7642,-0.7642,-0.7641,-0.764,0,-0.8842,-0.8772,-0.875,-0.8617,-0.8555,-0.8501,-0.8381,-0.8331,-0.8264,-0.8182,-0.8097,-0.7988,-0.7878,-0.7851,-0.7784,-0.7749,-0.7736,-0.7688,-0.7639,-0.7681,-0.7679,-0.7679,-0.7651,-0.7649,-0.7647,-0.7645,0,0,-0.8964,-0.8774,-0.8767,-0.8705,-0.8565,-0.8507,-0.8446,-0.834,-0.8298,-0.8204,-0.8147,-0.8031,-0.7985,-0.7917,-0.7839,-0.7807,-0.7823,-0.7762,-0.7757,-0.7775,-0.7773,-0.781,-0.7812,-0.7777,-0.7777,-0.7776,-0.7783,0,-0.8988,-0.8876,-0.8776,-0.8699,-0.8631,-0.8524,-0.847,-0.8377,-0.8298,-0.8227,-0.8138,-0.8057,-0.8004,-0.7962,-0.7925,-0.7829,-0.782,-0.7827,-0.7719,-0.7717,-0.7751,-0.7812,-0.7849,-0.7861,-0.7782,-0.7782,-0.7781,0,-0.9001,-0.8913,-0.883,-0.8695,-0.8663,-0.8617,-0.8511,-0.8445,-0.8336,-0.828,-0.8205,-0.8124,-0.8051,-0.8012,-0.7907,-0.7914,-0.7864,-0.781,-0.7807,-0.7791,-0.7751,-0.7795,-0.7862,-0.7863,-0.778,-0.778,-0.778,0,-0.9096,-0.8957,-0.8888,-0.8838,-0.868,-0.865,-0.8582,-0.8472,-0.8414,-0.8321,-0.8282,-0.8181,-0.8125,-0.8047,-0.7939,-0.7921,-0.7845,-0.7797,-0.7793,-0.7796,-0.778,-0.7782,-0.7838,-0.7752,-0.7752,-0.7752,-0.7752,0,-0.9132,-0.9084,-0.8928,-0.8886,-0.8829,-0.8714,-0.8659,-0.8581,-0.8484,-0.8422,-0.8324,-0.8267,-0.813,-0.8056,-0.7971,-0.7895,-0.7871,-0.7821,-0.7799,-0.7829,-0.7835,-0.7793,-0.7788,-0.7753,-0.7753,-0.7752,-0.7752,0,-0.9228,-0.9122,-0.9039,-0.8897,-0.886,-0.8823,-0.8699,-0.8652,-0.8569,-0.8492,-0.8467,-0.8334,-0.8241,-0.8127,-0.7997,-0.794,-0.7872,-0.7839,-0.791,-0.7897,-0.7898,-0.7899,-0.7927,-0.7923,-0.7844,-0.7845,-0.7846,0,-0.9257,-0.9217,-0.9071,-0.9024,-0.896,-0.8885,-0.8826,-0.8711,-0.8653,-0.8525,-0.8493,-0.8394,-0.8308,-0.8165,-0.8054,-0.7953,-0.7916,-0.7933,-0.79,-0.7931,-0.7913,-0.7916,-0.791,-0.7941,-0.7942,-0.7943,-0.7944,0,-0.9318,-0.9268,-0.9188,-0.909,-0.9023,-0.894,-0.8852,-0.8818,-0.8684,-0.8623,-0.8529,-0.8463,-0.8332,-0.8233,-0.8118,-0.8044,-0.797,-0.7956,-0.7949,-0.7978,-0.802,-0.7995,-0.7931,-0.7955,-0.7954,-0.7953,-0.7953,-0.7952,-0.9379,-0.9339,-0.9229,-0.9143,-0.9065,-0.8985,-0.8934,-0.8844,-0.8765,-0.8651,-0.8587,-0.8494,-0.8382,-0.8221,-0.815,-0.8073,-0.8046,-0.8037,-0.8034,-0.8033,-0.8042,-0.8035,-0.8051,-0.8051,-0.8051,-0.805,-0.805,0,-0.9433,-0.9358,-0.928,-0.9161,-0.9093,-0.9034,-0.8933,-0.8879,-0.8799,-0.8703,-0.8621,-0.8512,-0.8415,-0.8298,-0.8192,-0.8153,-0.8117,-0.8129,-0.8129,-0.8113,-0.8073,-0.8088,-0.816,-0.816,-0.816,-0.816,-0.816,-0.816,-0.9453,-0.9382,-0.9318,-0.9206,-0.9129,-0.904,-0.8987,-0.8911,-0.8834,-0.8717,-0.8638,-0.8563,-0.8456,-0.8343,-0.825,-0.8218,-0.8182,-0.8205,-0.8162,-0.8126,-0.8116,-0.8107,-0.812,-0.8198,-0.8199,-0.8208,-0.8208,-0.8208]},{"header":{"parameterUnit":"m.s-1","parameterCategory":1,"la1":30.2991,"la2":30.254,"lo1":-89.0895,"lo2":-89.0444,"dy":0.0017,"dx":0.0017,"nx":28,"ny":28,"refTime":"2025-07-24T03:00:00:Z","depth":0,"parameterNumber":3,"parameterNumberName":"V-component_of_WINDS"},"data":[0,0,0,0,0,0,0,0,0,0,0,0,0,0,0,0,0,0,0,0,0,0,0,0,0,0,0,0,0,0,0,0,0,0,0,0,0,0,0,0,0,0,0,0,0,0,0,0,0,0,0,0,0,0,0,0,0,0,-4.6437,-4.6439,0,-4.6603,-4.6605,-4.6607,-4.6515,-4.651,-4.6506,-4.6501,-4.6679,-4.6688,-4.6697,0,0,0,0,0,0,0,0,0,0,0,0,0,-4.6053,-4.606,-4.6437,-4.6439,-4.6441,-4.6602,-4.6605,-4.6607,-4.6516,-4.651,-4.6505,-4.6499,-4.6676,-4.6687,-4.6697,0,0,0,0,0,0,0,0,0,0,0,0,0,-4.622,-4.6063,-4.6437,-4.6415,-4.6415,-4.6602,-4.6605,-4.6608,-4.6517,-4.651,-4.6503,-4.6497,-4.6672,-4.6686,-4.6699,-4.6919,0,0,-4.674,-4.6746,0,0,0,0,0,0,0,0,-4.621,-4.6234,-4.6416,-4.6417,-4.6417,-4.6531,-4.6534,-4.6713,-4.6519,-4.6478,-4.6501,-4.6493,-4.6636,-4.6652,-4.6698,-4.6928,-4.6935,-4.6741,-4.6749,-4.6755,-4.6759,0,0,0,0,0,0,0,-4.6199,-4.6226,-4.6503,-4.6419,-4.642,-4.6401,-4.6417,-4.6568,-4.6594,-4.6481,-4.6475,-4.6496,-4.6635,-4.6685,-4.6702,-4.6938,-4.6741,-4.6753,-4.6761,-4.6766,-4.7359,-4.7366,0,0,0,0,0,0,-4.6187,-4.6217,-4.6498,-4.6508,-4.6294,-4.6413,-4.6431,-4.6501,-4.6592,-4.6599,-4.6501,-4.6491,-4.6666,-4.6686,-4.6708,-4.697,-4.6755,-4.6768,-4.6775,-4.7351,-4.736,-4.7369,0,0,0,0,0,0,-4.6179,-4.6213,-4.6491,-4.6361,-4.6395,-4.6427,-4.6507,-4.6508,-4.6558,-4.6607,-4.6612,-4.6547,-4.6661,-4.6689,-4.6867,-4.6975,-4.6774,-4.6786,-4.7342,-4.7354,-4.7365,-4.7498,0,0,0,0,0,0,-4.6169,-4.6211,-4.6292,-4.6363,-4.6402,-4.6644,-4.6514,-4.6517,-4.6581,-4.6569,-4.6651,-4.6658,-4.6658,-4.6847,-4.6881,-4.699,-4.6797,-4.7332,-4.7347,-4.7361,-4.7484,-4.7512,-4.7537,0,0,0,0,0,-4.6155,-4.6324,-4.6296,-4.6331,-4.6503,-4.6651,-4.6673,-4.6666,-4.659,-4.6673,-4.6705,-4.6656,-4.696,-4.6866,-4.6903,-4.7018,-4.7325,-4.7343,-4.736,-4.7472,-4.7507,-4.7536,0,0,0,0,0,0,-4.6266,-4.6333,-4.6302,-4.6499,-4.657,-4.6635,-4.6739,-4.6704,-4.6799,-4.6784,-4.6775,-4.6795,-4.698,-4.7018,-4.6913,-4.7238,-4.7131,-4.7156,-4.7204,-4.7237,-4.7264,-4.7248,-4.6808,0,0,0,0,0,-4.6313,-4.6424,-4.6478,-4.6647,-4.6684,-4.6706,-4.677,-4.6759,-4.6833,-4.6863,-4.6908,-4.6984,-4.7096,-4.717,-4.7277,-4.7492,-4.7508,-4.759,-4.7616,-4.7638,-4.7658,-4.7775,-4.7811,-4.7425,-4.7425,-4.7425,0,0,-4.6411,-4.6462,-4.6533,-4.667,-4.6723,-4.6841,-4.6731,-4.6861,-4.6948,-4.6884,-4.7052,-4.709,-4.7175,-4.7372,-4.7461,-4.7409,-4.777,-4.766,-4.7677,-4.7685,-4.7796,-4.7832,-4.7865,-4.7437,-4.7435,-4.7433,0,0,-4.6649,-4.67,-4.6844,-4.6901,-4.6983,-4.6997,-4.7033,-4.7105,-4.7126,-4.7296,-4.725,-4.7358,-4.7552,-4.7614,-4.7671,-4.794,-4.7897,-4.7976,-4.8112,-4.8226,-4.8256,-4.8283,-4.8376,-4.8409,-4.7997,-4.7998,-4.7998,0,-4.676,-4.6932,-4.6924,-4.7056,-4.7119,-4.7067,-4.7215,-4.7272,-4.7386,-4.7431,-4.7372,-4.7615,-4.767,-4.788,-4.7946,-4.7996,-4.8036,-4.7962,-4.8252,-4.8279,-4.8304,-4.8392,-4.8428,-4.8006,-4.8005,-4.8004,-4.8003,0,-4.7065,-4.7186,-4.7295,-4.7403,-4.7479,-4.762,-4.7635,-4.7715,-4.7701,-4.7723,-4.7899,-4.7963,-4.808,-4.8132,-4.812,-4.8343,-4.8307,-4.8252,-4.8143,-4.8349,-4.8432,-4.8466,-4.8018,-4.8015,-4.8013,-4.8011,0,0,-4.7368,-4.7474,-4.7514,-4.7563,-4.7653,-4.7747,-4.7889,-4.8003,-4.807,-4.8154,-4.8271,-4.844,-4.8388,-4.8453,-4.845,-4.8551,-4.8757,-4.8482,-4.8484,-4.8527,-4.9005,-4.9041,-4.9081,-4.8733,-4.8739,-4.8745,-4.8996,0,-4.7608,-4.7848,-4.7848,-4.8071,-4.8183,-4.8139,-4.8262,-4.8333,-4.836,-4.8462,-4.8494,-4.8611,-4.8537,-4.8575,-4.8674,-4.871,-4.8852,-4.8694,-4.8841,-4.8847,-4.8814,-4.9125,-4.9163,-4.9397,-4.9029,-4.9034,-4.9038,0,-4.7917,-4.8008,-4.8241,-4.8317,-4.8364,-4.8473,-4.8579,-4.8678,-4.8759,-4.8772,-4.8848,-4.8829,-4.8976,-4.887,-4.9072,-4.8964,-4.9027,-4.9055,-4.9064,-4.9072,-4.8949,-4.9136,-4.9472,-4.9504,-4.909,-4.9086,-4.9082,0,-4.8109,-4.8292,-4.8454,-4.8499,-4.8592,-4.867,-4.8714,-4.8788,-4.8858,-4.8953,-4.8998,-4.9111,-4.9171,-4.9261,-4.9274,-4.9196,-4.9478,-4.9372,-4.9492,-4.9492,-4.9546,-4.9541,-4.9891,-4.9598,-4.9598,-4.9597,-4.9596,0,-4.8372,-4.8516,-4.8541,-4.8641,-4.8802,-4.8805,-4.8966,-4.9003,-4.9072,-4.918,-4.9153,-4.9256,-4.9271,-4.938,-4.9394,-4.9558,-4.9588,-4.9602,-4.9603,-4.9601,-4.9598,-4.9636,-4.9618,-4.9606,-4.9604,-4.9602,-4.9601,0,-4.8609,-4.8633,-4.8807,-4.8883,-4.8906,-4.9021,-4.9087,-4.9184,-4.9212,-4.935,-4.9383,-4.9426,-4.9552,-4.9577,-4.9728,-4.9737,-4.9932,-4.992,-4.9902,-4.9899,-5.0015,-5.0002,-5.0396,-5.0446,-5.0126,-5.0129,-5.0132,0,-4.8772,-4.8881,-4.8969,-4.9039,-4.9085,-4.9199,-4.9269,-4.928,-4.9355,-4.9459,-4.9544,-4.9668,-4.9766,-4.9971,-5.0017,-5.0134,-5.012,-5.0251,-5.0137,-5.0132,-5.0116,-5.0107,-5.0117,-5.027,-5.0273,-5.0276,-5.0279,0,-4.9057,-4.9064,-4.9165,-4.9273,-4.9357,-4.9443,-4.9525,-4.9585,-4.9607,-4.9694,-4.9821,-4.9898,-5.0052,-5.0175,-5.0292,-5.034,-5.0314,-5.0316,-5.0348,-5.0343,-5.0326,-5.0333,-4.9955,-5.0304,-5.0302,-5.03,-5.0298,-5.0297,-4.9258,-4.9353,-4.9429,-4.9544,-4.9607,-4.9685,-4.978,-4.982,-4.9926,-5.0049,-5.0052,-5.0191,-5.0276,-5.0429,-5.0486,-5.0597,-5.0556,-5.0605,-5.0616,-5.0626,-5.0634,-5.0315,-5.062,-5.0619,-5.0618,-5.0618,-5.0617,0,-4.9536,-4.9585,-4.9691,-4.9805,-4.9897,-4.9866,-4.9956,-5.0035,-5.0157,-5.0237,-5.0335,-5.0484,-5.0605,-5.0663,-5.0783,-5.0862,-5.0853,-5.0892,-5.0883,-5.0894,-5.0667,-5.0623,-5.0897,-5.0897,-5.0897,-5.0897,-5.0897,-5.0897,-4.9691,-4.9849,-4.9867,-5.0059,-5.0108,-5.0242,-5.0296,-5.0369,-5.0432,-5.0598,-5.0698,-5.0735,-5.0808,-5.0934,-5.1044,-5.1059,-5.1102,-5.1147,-5.1155,-5.0939,-5.0911,-5.0883,-5.0842,-5.1158,-5.1158,-5.1373,-5.1375,-5.1376]}]]